Lone Rock, WI

4:17 PM CDT on September 26, 2016 (GMT -0500)
Tri-County Regional

Weather History for KLNR - January, 2014

Change the Weather History Date:

Saturday, January 25, 2014

  Actual Average Record
Temperature  
Mean Temperature 18 °F -  
Max Temperature 33 °F 25 °F 55 °F (2002)
Min Temperature 3 °F 10 °F -20 °F (2008)
Degree Days  
Heating Degree Days 47    
Moisture  
Dew Point 0 °F    
Average Humidity 53    
Maximum Humidity 72    
Minimum Humidity 42    
Precipitation  
Precipitation 0.00 in - - ()
Sea Level Pressure  
Sea Level Pressure 29.70 in    
Wind  
Wind Speed 16 mph (WNW)    
Max Wind Speed 29 mph    
Max Gust Speed 38 mph    
Visibility 10 miles    
Events      
Averages and records for this station are not official NWS values.
T = Trace of Precipitation, MM = Missing Value Source: NWS Daily Summary

Daily Weather History Graph

Daily Weather History Graph

Search for Another Location

Airport or City:

Trip Planner

Search our weather history database for the weather conditions in past years. The results will help you decide how hot, cold, wet, or windy it might be!

Date:

Astronomy

Jan. 25, 2014 Rise Set
Actual Time 7:22 AM CST 5:03 PM CST
Civil Twilight 6:52 AM CST 5:34 PM CST
Nautical Twilight 6:17 AM CST 6:08 PM CST
Astronomical Twilight 5:44 AM CST 6:42 PM CST
Moon 1:54 AM CST (1/25) 12:04 PM CST (1/25)
Length of Visible Light 10h 42m
Length of Day
9h 40m
Waning Crescent, 34% of the Moon is Illuminated
Jan 25
Waning Crescent
Jan 30
New
Feb 6
First Quarter
Feb 14
Full
Feb 22
Last Quarter

Hourly Weather History & Observations

Time (CST) Temp. Windchill Dew Point Humidity Pressure Visibility Wind Dir Wind Speed Gust Speed Precip Events Conditions
12:56 AM 33.1 °F 23.0 °F 25.0 °F 72% 29.43 in 9.0 mi NW 15.0 mph 23.0 mph N/A   Overcast
1:05 AM 33.1 °F 22.6 °F 24.1 °F 70% 29.42 in 10.0 mi WNW 16.1 mph 25.3 mph N/A   Overcast
1:56 AM 32.0 °F 20.1 °F 21.0 °F 64% 29.45 in 9.0 mi WNW 19.6 mph 28.8 mph N/A   Scattered Clouds
2:56 AM 30.0 °F 18.7 °F 18.0 °F 61% 29.47 in 10.0 mi WNW 16.1 mph 26.5 mph N/A   Mostly Cloudy
3:56 AM 28.9 °F 17.7 °F 15.1 °F 56% 29.48 in 10.0 mi NW 15.0 mph 25.3 mph N/A   Partly Cloudy
4:56 AM 25.0 °F 11.3 °F 8.1 °F 49% 29.51 in 10.0 mi NNW 18.4 mph 29.9 mph N/A   Partly Cloudy
5:56 AM 21.0 °F 6.2 °F 3.0 °F 46% 29.56 in 10.0 mi NW 18.4 mph 26.5 mph N/A   Partly Cloudy
6:56 AM 15.1 °F -5.0 °F -4.0 °F 43% 29.61 in 6.0 mi NW 28.8 mph 38.0 mph N/A   Haze
7:56 AM 12.0 °F -6.5 °F -7.1 °F 42% 29.68 in 7.0 mi NW 20.7 mph 36.8 mph 0.00 in   Clear
8:56 AM 9.0 °F -10.0 °F -8.0 °F 46% 29.73 in 8.0 mi NW 19.6 mph 34.5 mph N/A   Clear
9:56 AM 9.0 °F -11.0 °F -8.0 °F 46% 29.76 in 8.0 mi NW 21.9 mph 32.2 mph N/A   Clear
10:56 AM 10.0 °F -7.6 °F -7.1 °F 46% 29.78 in 10.0 mi WNW 17.3 mph - N/A   Clear
11:56 AM 10.0 °F -7.1 °F -8.0 °F 44% 29.79 in 10.0 mi NW 16.1 mph 25.3 mph N/A   Clear
12:56 PM 10.9 °F -7.0 °F -7.1 °F 44% 29.78 in 10.0 mi NW 18.4 mph 25.3 mph N/A   Clear
1:56 PM 12.0 °F -5.6 °F -6.0 °F 44% 29.79 in 10.0 mi WNW 18.4 mph - N/A   Clear
2:56 PM 10.9 °F -7.5 °F -7.1 °F 44% 29.80 in 10.0 mi WNW 19.6 mph - N/A   Clear
3:56 PM 10.0 °F -7.6 °F -7.1 °F 46% 29.82 in 10.0 mi West 17.3 mph 25.3 mph N/A   Clear
4:56 PM 9.0 °F -8.5 °F -8.0 °F 46% 29.84 in 10.0 mi West 16.1 mph - N/A   Clear
5:56 PM 7.0 °F -12.6 °F -8.0 °F 51% 29.87 in 10.0 mi WNW 19.6 mph 24.2 mph N/A   Clear
6:56 PM 3.9 °F -8.2 °F -7.1 °F 60% 29.88 in 10.0 mi West 6.9 mph - N/A   Clear
7:56 PM 3.9 °F -6.9 °F -7.1 °F 60% 29.87 in 10.0 mi WSW 5.8 mph - N/A   Clear
8:56 PM 3.0 °F - -7.1 °F 63% 29.85 in 10.0 mi Calm Calm - N/A   Clear
9:56 PM 5.0 °F -6.9 °F -6.0 °F 61% 29.83 in 10.0 mi West 6.9 mph - N/A   Overcast
10:56 PM 6.1 °F - -5.1 °F 60% 29.78 in 10.0 mi Calm Calm - N/A   Overcast
11:56 PM 6.1 °F -2.8 °F -5.1 °F 60% 29.71 in 10.0 mi South 4.6 mph - N/A   Overcast